#timestamp,LO_Frequency,Hit,StdDev 
1687507215.1,286047002.4,N
1687507216.0,286047002.4,N
1687507235.8,286047001.9,N
1687507255.6,286047001.9,N
1687507275.5,286046999.8,N
1687507295.3,286046999.7,N
1687507315.2,286046999.9,N
1687507335.9,286047002.7,N
1687507355.7,286047002.2,N
1687507375.6,286047002.0,N
1687507395.4,286047002.7,N
1687507415.2,286047002.7,N
1687507435.1,286047000.0,N
1687507436.0,286047000.0,N
1687507455.8,286047002.5,N
1687507475.7,286047002.3,N
1687507495.5,286046999.9,N
1687507515.3,286046999.8,N
1687507535.2,286047000.3,N
1687507555.0,286047000.0,N
1687507555.9,286047000.0,N
1687507575.7,286047000.0,N
1687507595.6,286047000.1,N
1687507615.4,286047002.8,N
1687507635.3,286047002.7,N
1687507655.1,286047000.0,N
1687507656.0,286047000.0,N
1687507675.8,286047002.8,N
1687507695.7,286047002.1,N
1687507715.5,286047002.0,N
1687507735.3,286047002.0,N
1687507755.2,286047002.8,N
1687507775.0,286047002.8,N
1687507775.9,286047002.8,N
1687507795.8,286047001.5,N
1687507815.6,286047001.5,N
1687507835.4,286047001.6,N
1687507855.3,286047001.9,N
1687507875.1,286047002.1,N
1687507895.8,286047002.2,N
1687507915.7,286047002.2,N
1687507935.5,286047001.5,N
1687507955.4,286047001.7,N
1687507975.2,286047002.0,N
1687507995.0,286047002.7,N
1687507995.9,286047002.7,N
1687508015.8,286047001.9,N
1687508035.6,286047002.1,N
1687508055.5,286047001.4,N
1687508105.3,286047001.6,E
1687508115.2,286046999.7,N
1687508135.1,286047000.9,P
1687508136.0,286047000.9,N
1687508155.8,286047001.0,N
1687508175.7,286047000.7,N
1687508195.5,286046998.5,Y
1687508215.3,286047001.1,P
1687508235.2,286047000.4,N
1687508255.0,286047000.3,N
1687508255.9,286047000.3,N
1687508275.7,286047000.3,N
1687508295.6,286047000.3,N
1687508315.4,286046999.9,N
1687508335.3,286047000.3,N
1687508355.1,286046998.5,Y
1687508375.8,286046999.3,P
1687508395.7,286046998.3,P
1687508415.5,286046999.0,N
1687508435.3,286046998.8,N
1687508455.2,286046998.5,N
1687508475.0,286046998.6,N
1687508475.9,286046998.6,N
1687508495.8,286046999.5,N
1687508515.6,286046999.0,N
1687508535.4,286046998.7,N
1687508555.3,286046998.2,Y
1687508575.1,286046998.5,P
1687508595.9,286046998.7,P
1687508615.7,286046998.2,P
1687508635.5,286047000.7,N
1687508655.4,286046998.8,N
1687508675.2,286046998.3,N
1687508695.0,286047001.2,N
1687508695.9,286047001.2,N
1687508715.8,286047000.2,N
1687508735.6,286047001.2,N
1687508755.7,286046998.1,N
1687508775.5,286046998.6,N
1687508795.4,286047000.8,N
1687508815.2,286046998.1,N
1687508835.0,286046998.8,N
1687508835.9,286046998.8,N
1687508855.8,286047001.1,N
1687508875.6,286046999.2,N
1687508895.4,286046998.9,N
1687508915.3,286046998.4,N
1687508935.1,286046998.2,N
1687508955.9,286046998.7,N
1687508975.7,286046998.2,N
1687508995.5,286047001.2,N
1687509015.4,286047001.2,N
1687509035.2,286046998.6,N
1687509055.0,286046998.6,N
1687509055.9,286046998.6,N
1687509075.8,286047001.2,N
1687509095.6,286046998.1,N
1687509115.5,286047001.2,N
1687509135.3,286046998.1,N
1687509155.1,286046998.6,N
1687509175.9,286047001.1,N
1687509195.7,286046998.5,N
1687509215.5,286046998.3,N
1687509235.4,286046998.1,N
1687509255.2,286046998.7,N
1687509275.1,286046998.1,N
1687509276.0,286046998.1,N
1687509295.8,286046999.5,N
1687509315.6,286046999.3,N
1687509335.5,286046998.6,N
1687509355.3,286046998.2,N
1687509375.1,286046998.6,N
1687509395.9,286046998.2,N
1687509415.7,286047000.8,N
1687509435.6,286047001.2,N
1687509455.4,286047000.8,N
1687509475.2,286046998.5,N
1687509495.1,286047001.2,N
1687509496.0,286047001.2,N
1687509515.8,286046998.1,N
1687509535.6,286046999.3,N
1687509555.5,286046996.6,N
1687509575.3,286046999.2,N
1687509595.2,286046998.8,N
1687509615.9,286046998.9,N
1687509635.7,286046998.1,N
1687509655.6,286046998.1,N
1687509675.4,286046998.1,N
1687509695.2,286046998.7,N
1687509715.1,286046998.5,N
1687509716.0,286046998.5,N
1687509735.8,286046998.1,N
1687509755.7,286046998.4,N
1687509775.5,286046999.1,N
1687509795.3,286046999.4,N
1687509815.2,286046999.5,N
1687509835.0,286046997.0,N
1687509835.9,286046997.0,N
1687509855.8,286046996.9,N
1687509875.6,286046998.9,N
1687509895.4,286046998.1,N
1687509915.3,286047000.6,N
1687509935.1,286046998.1,N
1687509955.8,286047000.7,N
1687509975.7,286047000.5,N
1687509995.5,286047000.6,N
1687510015.4,286047000.2,N
1687510035.2,286047002.2,N
1687510055.0,286047002.4,N
1687510055.9,286047002.4,N
1687510075.8,286047000.1,N
1687510095.6,286047002.7,N
1687510115.4,286047002.8,N
1687510135.3,286046999.9,N
1687510155.1,286046999.7,N
1687510175.9,286047000.0,N
1687510195.7,286046999.7,N
1687510215.5,286047000.7,N
1687510235.4,286047000.6,N
1687510255.2,286047000.9,N
1687510275.0,286046998.1,N
1687510275.9,286046998.1,N
1687510295.8,286046998.3,N
1687510315.6,286046996.6,N
1687510335.5,286046999.1,N
1687510355.3,286046999.3,N
1687510375.1,286046998.4,N
1687510395.9,286046998.5,N
1687510415.7,286046998.1,N
1687510435.5,286046998.8,N
1687510455.4,286047000.8,N
1687510475.2,286047000.6,N
1687510495.1,286046998.2,N
1687510496.0,286046998.2,N
1687510515.8,286046998.2,N
1687510535.6,286047001.2,N
1687510555.5,286047001.1,N
1687510575.3,286046998.4,N
1687510595.1,286046998.6,N
1687510615.9,286046998.4,N
1687510635.7,286046999.2,N
1687510655.6,286046996.5,N
1687510675.4,286046999.4,N
1687510695.2,286046999.4,N
1687510715.1,286046997.1,N
1687510716.0,286046997.1,N
1687510735.8,286046997.1,N
1687510755.7,286046997.2,N
1687510775.5,286046997.0,N
1687510795.3,286046996.7,N
